Wind_Speed
5 5 5 6 9 11 13 16 18 19 20 21 21 20 17 17 16 17 18 18 18 19 19 18 17 18 21 22 22 24 24 28 25 20 24 23 31 35 49 37 43 38 34
4 4 6 8 10 12 14 16 17 18 18 20 20 20 18 15 16 17 16 14 15 17 19 19 18 18 19 18 22 22 24 23 19 17 17 15 10 21 31 23 21 27 14
3 5 6 8 12 15 15 16 18 17 18 19 20 19 17 14 12 14 12 13 14 16 18 20 17 17 15 16 19 18 22 19 16 16 15 5 5 6 5 8 6 8 1
2 5 7 9 12 14 17 18 18 18 18 19 19 18 18 14 14 15 13 12 12 17 19 19 13 13 15 16 19 17 18 14 14 13 12 15 9 4 2 4 2 6 7
1 3 6 9 13 16 18 19 18 18 18 18 17 16 15 13 14 13 13 11 11 13 17 17 11 10 9 10 10 12 11 11 12 12 12 14 12 7 8 4 1 7 9
3 5 7 8 12 16 18 19 19 18 18 17 16 15 14 14 13 11 12 10 11 10 12 14 11 10 9 7 5 5 4 4 6 9 11 10 7 10 14 15 16 15 21
4 6 9 12 16 18 21 21 20 20 19 18 17 16 14 13 12 11 11 11 10 8 8 9 12 9 8 7 6 7 7 3 4 4 8 9 10 8 10 10 11 12 17
6 11 15 19 23 24 25 22 21 21 21 20 18 17 15 14 12 11 12 11 9 8 7 8 9 8 9 7 8 8 5 5 6 7 8 6 6 7 8 9 11 8 10
15 19 22 22 22 23 24 20 21 23 22 21 21 18 16 15 14 13 13 12 10 8 8 8 7 8 6 6 6 7 8 8 6 6 6 7 8 8 9 11 11 12 8
20 22 20 18 19 20 19 18 20 22 23 24 22 21 19 17 16 16 15 15 14 12 11 10 9 8 6 9 9 10 9 9 9 9 10 11 12 11 11 10 11 12 12
16 19 17 16 16 17 18 18 20 22 23 24 24 23 22 20 19 19 18 18 17 17 15 14 13 13 12 11 13 15 14 13 12 11 12 12 12 12 11 11 11 11 12
14 17 18 17 15 16 17 19 21 23 23 23 25 25 24 23 22 21 21 21 19 19 18 17 17 17 18 18 17 16 14 13 12 11 11 11 10 10 11 11 11 11 12
13 16 18 18 18 19 19 21 24 24 22 22 23 26 27 26 24 23 22 22 21 20 19 18 17 16 16 14 14 14 13 12 11 10 10 10 9 8 8 8 9 10 10
15 18 21 21 22 24 24 28 29 25 23 23 23 25 26 27 26 24 23 23 22 22 21 20 19 18 17 15 14 13 12 12 10 9 9 9 9 9 8 7 7 7 8
19 22 24 27 30 30 30 31 29 29 28 26 25 26 26 27 28 28 27 26 25 23 22 21 20 18 17 16 14 13 13 12 12 10 10 10 9 8 8 8 8 7 7
24 26 29 33 34 32 33 32 31 28 29 29 29 28 28 28 30 30 28 27 26 24 24 22 21 20 18 19 15 15 14 14 12 12 11 10 9 9 9 9 9 10 10
28 32 34 34 34 32 31 31 31 29 28 32 32 33 32 30 31 32 31 30 28 27 26 24 23 21 20 21 18 16 15 14 13 13 12 12 11 10 10 11 11 11 12
35 34 33 35 35 34 32 31 31 31 29 29 32 32 32 33 31 33 34 33 30 29 28 26 25 23 22 22 20 19 15 16 15 15 14 13 13 13 12 12 12 12 11
32 31 32 35 36 33 29 29 32 30 27 28 32 32 32 31 33 33 35 35 34 32 30 28 27 25 23 23 21 21 18 18 17 17 16 16 14 15 14 13 12 12 12
29 30 31 32 31 29 26 28 31 30 28 29 33 34 34 32 31 32 33 34 37 35 33 31 29 27 25 26 22 22 20 19 18 18 17 17 16 16 15 14 13 13 12
28 28 28 28 26 27 27 28 31 32 32 33 32 31 31 31 30 31 32 33 36 37 36 34 32 30 28 26 25 24 23 21 19 18 18 17 17 16 15 16 14 13 14
29 30 28 30 32 30 27 27 29 31 31 33 32 31 31 32 30 30 30 32 34 37 36 34 33 32 30 27 28 25 25 23 22 20 18 17 19 16 16 14 13 13 14
25 26 27 29 30 29 27 29 30 30 31 30 31 31 29 30 29 28 27 29 32 36 37 36 34 33 32 29 27 25 25 24 24 20 19 20 20 16 14 14 13 15 15
25 26 27 29 30 29 30 28 28 29 29 30 30 30 29 27 27 26 26 27 30 33 39 39 38 35 33 30 27 26 25 25 24 21 21 19 18 17 15 15 14 15 15
25 27 29 30 30 29 29 30 30 30 30 31 31 30 29 28 27 26 27 29 29 28 33 37 38 36 34 31 26 24 24 23 23 22 21 20 18 16 15 14 14 14 15
26 31 32 32 31 30 28 28 29 30 31 33 33 31 30 29 30 30 31 30 29 29 29 33 35 34 29 27 25 23 21 23 21 22 22 20 18 17 15 14 14 14 14
Wind_Direction
189 223 261 291 301 312 319 329 330 329 334 336 335 333 326 322 319 324 337 335 341 328 318 308 300 289 276 270 259 256 256 260 261 274 262 268 262 253 248 247 251 242 233
203 236 271 298 307 307 315 320 322 326 328 332 329 328 322 323 334 340 336 335 319 334 317 308 299 290 285 268 265 254 257 261 255 256 254 265 272 234 254 275 248 210 219
239 252 264 281 296 304 309 313 315 323 325 326 325 325 330 331 331 323 343 335 337 325 318 315 302 298 303 279 274 264 256 252 251 250 242 228 220 200 24 35 219 170 127
259 269 279 289 296 298 301 306 311 320 319 321 328 327 328 324 319 329 334 324 333 317 329 333 314 309 296 285 273 264 260 247 247 260 239 231 215 157 68 79 99 138 193
288 296 305 315 314 306 303 303 306 309 312 317 324 324 324 316 315 326 320 316 320 343 343 336 335 315 322 291 283 266 260 255 245 228 202 173 148 193 215 203 263 255 248
339 330 325 323 327 326 316 303 301 302 306 311 315 318 317 322 319 315 321 322 333 350 353 354 350 341 332 325 301 297 255 254 233 219 224 220 216 231 211 220 199 219 213
336 315 311 308 310 313 317 307 299 298 300 303 305 308 309 310 318 315 323 329 332 333 342 353 357 353 351 340 320 314 312 279 244 231 229 214 214 211 211 223 211 212 232
322 306 306 303 301 302 303 302 297 296 293 296 298 298 300 303 300 307 309 317 326 329 330 338 325 333 334 340 342 338 340 322 280 266 260 261 259 246 237 219 216 238 235
327 316 311 305 302 301 302 295 294 297 290 290 293 294 294 293 292 288 298 302 304 305 303 308 312 319 302 298 307 305 298 300 289 280 266 249 248 247 240 238 239 229 210
334 326 317 315 310 305 309 307 307 305 295 287 289 290 289 288 284 280 278 284 289 290 286 290 290 291 282 295 291 287 283 283 283 278 272 270 268 265 260 248 245 237 232
349 349 342 329 322 323 321 318 316 314 305 291 286 287 287 285 281 278 278 277 276 279 281 283 280 279 281 280 278 281 281 278 277 272 265 259 256 258 261 260 255 249 244
346 348 345 343 336 325 316 309 312 316 314 300 287 283 284 284 281 279 278 277 275 276 277 278 279 278 275 277 280 283 283 281 277 272 265 265 261 252 250 250 252 251 258
332 335 338 339 335 329 323 310 300 300 309 303 295 285 277 277 278 275 274 274 273 275 277 278 277 278 279 277 275 277 281 280 278 275 272 273 266 260 256 251 251 249 253
327 330 331 331 329 326 323 319 314 294 299 302 300 294 281 273 275 273 270 272 276 278 280 279 276 274 272 270 270 269 271 274 272 268 265 265 259 255 255 253 257 266 272
324 326 325 321 318 315 315 315 310 298 293 296 300 302 290 272 265 267 273 277 278 279 278 278 277 275 272 267 264 261 258 260 263 257 248 246 250 251 253 250 258 266 263
320 317 317 316 313 312 312 310 308 302 294 290 298 302 295 279 265 264 267 267 268 269 270 270 270 272 269 269 263 259 254 250 250 257 262 261 258 258 260 264 265 267 268
317 315 314 312 310 310 310 310 307 305 289 290 297 297 294 285 273 264 262 262 263 263 263 265 265 266 266 265 261 257 251 249 247 248 249 256 262 269 279 294 296 298 298
317 316 316 313 311 309 308 305 303 306 300 295 301 303 293 288 282 270 263 262 261 260 261 263 262 261 259 263 264 264 253 249 249 249 251 253 258 266 267 268 269 278 284
316 316 316 313 312 313 313 308 305 307 301 297 301 301 300 290 283 277 270 262 260 258 259 257 257 259 257 257 253 254 252 250 249 252 250 249 251 259 268 269 275 285 287
320 319 317 317 317 317 314 307 306 309 304 302 302 301 296 290 280 279 275 269 261 259 256 256 255 256 255 258 254 250 245 244 246 251 253 252 250 259 272 276 279 283 287
317 318 320 317 315 316 316 311 316 316 318 313 307 302 295 295 289 279 276 269 261 255 253 252 252 252 253 253 254 250 244 243 242 247 253 255 257 261 266 269 269 270 276
323 326 324 323 328 330 325 317 314 319 318 315 312 308 302 294 291 282 275 269 263 256 252 250 251 251 251 249 251 248 248 245 246 248 248 249 258 263 266 266 269 272 278
325 329 328 330 336 336 331 330 330 328 325 322 320 319 311 298 289 283 276 268 263 257 253 252 251 253 254 252 249 250 248 245 247 247 246 245 255 265 260 265 268 273 276
333 333 336 342 346 350 349 345 341 339 336 332 327 321 318 310 296 284 278 270 264 260 254 252 253 253 254 253 251 247 245 244 244 242 242 251 258 263 262 264 269 267 271
335 338 340 339 340 341 344 346 342 342 343 342 341 336 327 316 305 294 285 279 274 269 266 262 259 258 257 260 257 251 247 246 244 241 245 249 257 259 261 263 265 265 272
337 336 334 334 335 336 334 335 335 332 334 338 337 336 331 322 312 302 292 284 278 269 268 266 262 261 261 258 252 247 243 243 239 230 241 247 251 256 259 260 260 263 269
Height
1507 1506 1507 1507 1508 1506 1504 1503 1501 1499 1496 1493 1490 1487 1484 1481 1479 1475 1471 1468 1465 1464 1461 1458 1456 1454 1452 1451 1451 1452 1451 1450 1452 1451 1451 1452 1453 1451 1457 1460 1458 1458 1460
1505 1506 1506 1506 1505 1504 1503 1501 1500 1498 1495 1492 1489 1486 1483 1479 1476 1474 1470 1469 1466 1463 1460 1456 1452 1450 1448 1447 1446 1447 1447 1446 1449 1448 1448 1450 1448 1448 1448 1452 1450 1442 1441
1505 1506 1505 1504 1503 1501 1501 1499 1498 1496 1493 1491 1488 1485 1481 1477 1475 1472 1469 1467 1465 1462 1456 1452 1449 1447 1445 1443 1442 1441 1443 1442 1444 1445 1447 1446 1446 1446 1446 1450 1449 1450 1455
1503 1503 1503 1502 1502 1500 1498 1497 1495 1493 1491 1489 1485 1482 1478 1475 1472 1469 1466 1464 1462 1459 1455 1450 1447 1445 1443 1441 1440 1440 1439 1441 1441 1444 1445 1446 1445 1447 1455 1453 1451 1454 1462
1502 1503 1502 1501 1500 1498 1496 1494 1492 1490 1488 1485 1482 1479 1476 1474 1470 1467 1464 1462 1459 1456 1453 1449 1446 1444 1442 1440 1439 1438 1438 1439 1439 1441 1443 1444 1443 1446 1449 1450 1452 1452 1458
1502 1502 1501 1500 1498 1495 1493 1491 1489 1487 1484 1482 1480 1477 1475 1472 1469 1467 1463 1460 1458 1455 1453 1449 1446 1444 1442 1440 1439 1438 1438 1437 1438 1439 1442 1443 1443 1444 1445 1446 1443 1451 1449
1503 1501 1500 1498 1495 1493 1490 1487 1485 1483 1482 1480 1478 1476 1474 1471 1468 1465 1462 1460 1457 1455 1453 1450 1447 1444 1443 1442 1440 1439 1438 1438 1438 1438 1439 1441 1442 1444 1445 1444 1448 1451 1448
1501 1499 1498 1495 1492 1489 1486 1484 1482 1480 1478 1477 1476 1474 1472 1469 1467 1464 1462 1459 1457 1455 1453 1450 1448 1446 1443 1442 1441 1441 1440 1440 1440 1439 1440 1440 1440 1441 1442 1444 1446 1445 1447
1501 1498 1496 1493 1489 1486 1482 1480 1478 1476 1475 1474 1472 1470 1469 1467 1465 1463 1461 1459 1456 1454 1452 1450 1448 1446 1444 1443 1441 1441 1441 1440 1440 1439 1439 1439 1439 1439 1439 1441 1441 1444 1447
1499 1496 1492 1490 1487 1484 1480 1477 1476 1474 1472 1470 1468 1467 1465 1463 1461 1459 1457 1456 1454 1452 1450 1448 1447 1445 1443 1442 1441 1439 1438 1438 1438 1438 1438 1438 1438 1437 1437 1438 1439 1441 1442
1498 1494 1490 1488 1485 1481 1478 1475 1473 1470 1468 1466 1464 1463 1461 1459 1458 1456 1454 1453 1451 1449 1448 1447 1445 1444 1442 1441 1439 1438 1436 1435 1434 1433 1434 1435 1435 1434 1434 1434 1435 1436 1436
1496 1494 1490 1487 1483 1480 1477 1473 1470 1467 1464 1461 1459 1457 1456 1455 1454 1453 1451 1449 1447 1446 1444 1443 1442 1440 1439 1438 1437 1436 1435 1434 1433 1431 1430 1430 1431 1432 1432 1433 1432 1432 1432
1493 1491 1488 1485 1481 1477 1474 1470 1466 1462 1459 1455 1452 1451 1450 1448 1447 1446 1445 1444 1443 1442 1441 1439 1438 1436 1435 1434 1433 1432 1432 1432 1432 1431 1430 1429 1429 1429 1429 1430 1430 1430 1430
1492 1489 1486 1483 1480 1476 1472 1466 1462 1457 1454 1450 1447 1444 1442 1442 1443 1441 1441 1440 1439 1438 1437 1435 1434 1432 1431 1430 1429 1428 1427 1427 1427 1428 1428 1428 1427 1427 1427 1427 1427 1427 1427
1490 1487 1484 1480 1476 1471 1467 1462 1457 1452 1449 1445 1442 1439 1437 1435 1433 1432 1433 1433 1433 1432 1432 1431 1430 1429 1428 1427 1426 1425 1424 1424 1423 1424 1424 1424 1424 1424 1424 1424 1424 1424 1424
1488 1484 1480 1476 1471 1466 1461 1456 1451 1447 1443 1439 1436 1434 1431 1428 1426 1426 1426 1425 1424 1424 1424 1424 1424 1424 1423 1422 1422 1422 1422 1421 1420 1420 1420 1419 1419 1420 1420 1420 1420 1420 1420
1485 1480 1475 1469 1464 1459 1455 1450 1445 1441 1438 1434 1431 1428 1425 1422 1420 1419 1418 1418 1418 1418 1417 1417 1417 1416 1417 1415 1416 1417 1416 1417 1417 1417 1417 1418 1417 1416 1416 1416 1416 1415 1415
1481 1475 1469 1463 1457 1453 1449 1443 1438 1433 1429 1426 1425 1422 1420 1417 1415 1413 1412 1412 1412 1411 1412 1413 1413 1412 1412 1411 1412 1411 1412 1411 1412 1412 1413 1413 1413 1414 1414 1414 1414 1413 1412
1476 1471 1465 1458 1452 1447 1444 1438 1433 1429 1425 1421 1417 1413 1410 1408 1407 1404 1404 1405 1405 1405 1404 1403 1404 1405 1405 1406 1407 1407 1408 1408 1407 1408 1407 1408 1409 1409 1410 1410 1409 1408 1408
1470 1464 1459 1452 1447 1442 1438 1433 1428 1424 1420 1416 1411 1407 1403 1398 1396 1396 1397 1397 1397 1397 1397 1397 1397 1397 1398 1399 1401 1401 1402 1402 1403 1403 1404 1403 1404 1403 1404 1404 1403 1403 1403
1465 1460 1454 1449 1444 1439 1434 1428 1423 1418 1413 1408 1404 1400 1396 1392 1391 1389 1388 1386 1387 1388 1388 1388 1389 1390 1390 1392 1394 1396 1396 1396 1397 1397 1399 1399 1397 1398 1397 1397 1398 1398 1398
1459 1455 1450 1443 1437 1433 1428 1423 1417 1412 1407 1402 1397 1393 1389 1386 1383 1382 1382 1381 1381 1381 1383 1383 1383 1384 1384 1384 1386 1389 1391 1393 1393 1392 1394 1394 1393 1393 1393 1393 1393 1393 1393
1455 1450 1445 1439 1433 1429 1424 1418 1412 1407 1402 1397 1392 1387 1383 1379 1376 1374 1374 1374 1375 1376 1376 1377 1378 1379 1381 1382 1382 1382 1384 1386 1388 1389 1389 1389 1389 1389 1388 1389 1389 1390 1389
1451 1447 1442 1436 1430 1425 1420 1414 1409 1404 1398 1393 1388 1383 1378 1374 1371 1368 1367 1365 1365 1365 1367 1367 1368 1370 1373 1376 1377 1377 1378 1380 1381 1384 1384 1385 1385 1385 1385 1384 1384 1385 1385
1448 1444 1439 1434 1428 1423 1418 1413 1407 1401 1395 1390 1385 1379 1375 1371 1368 1364 1362 1359 1359 1358 1359 1359 1361 1363 1365 1367 1369 1371 1371 1373 1375 1378 1379 1379 1380 1379 1379 1379 1380 1380 1379
1445 1440 1435 1431 1425 1420 1415 1410 1405 1400 1393 1387 1381 1376 1371 1367 1363 1360 1357 1354 1352 1351 1352 1353 1354 1356 1359 1360 1362 1364 1364 1367 1369 1372 1373 1374 1375 1374 1375 1375 1375 1375 1374